Temp_Advection
nan nan nan nan nan nan nan nan nan nan nan nan nan nan nan nan nan nan nan nan nan nan nan nan nan nan nan nan nan nan nan nan nan nan nan nan nan nan nan nan nan nan nan nan nan nan nan nan nan nan nan nan nan nan nan nan nan nan nan nan nan nan nan nan nan nan nan nan nan
nan 1 1 0 0 0 0 0 0 0 0 0 1 1 1 0 0 1 1 1 1 0 0 0 0 0 0 1 0 0 0 0 0 0 0 1 1 1 1 1 1 1 1 1 1 1 1 1 1 1 0 0 0 -0 0 1 1 1 0 0 0 -0 -0 -0 -0 -0 0 0 nan
nan 1 1 0 0 0 0 0 0 0 0 1 1 1 1 1 0 0 1 1 1 1 0 0 0 0 0 0 1 0 0 0 0 0 0 1 1 1 1 1 1 1 1 1 1 1 1 1 1 1 0 0 0 0 0 1 1 1 0 0 0 -0 -0 -0 -0 0 0 0 nan
nan 1 0 0 0 0 0 0 0 0 1 1 1 1 1 1 0 0 1 1 1 1 1 0 0 0 0 0 0 1 0 0 0 0 0 0 1 1 1 1 1 1 1 1 1 1 1 1 1 1 0 1 0 0 0 1 1 1 0 0 0 0 -0 -0 -0 0 0 0 nan
nan 1 1 1 1 0 0 0 0 0 1 1 1 1 1 1 0 0 0 1 1 1 1 0 0 0 0 0 0 0 1 0 0 0 0 0 0 1 1 1 1 1 1 1 1 1 1 1 1 0 0 0 0 0 1 1 1 0 0 0 0 0 -0 -0 -0 0 0 0 nan
nan 1 1 1 1 0 0 0 0 0 1 1 1 1 1 1 0 0 0 1 1 1 1 0 0 0 0 0 0 0 0 0 0 0 0 0 0 0 1 1 1 1 1 1 1 1 1 1 1 0 0 0 0 0 1 1 0 0 -0 -0 0 0 0 0 -0 0 0 0 nan
nan 1 1 1 0 0 0 0 0 0 0 1 1 1 1 1 0 0 0 1 1 1 1 0 0 0 0 0 0 0 0 0 0 0 0 0 0 0 1 1 1 1 1 1 1 1 1 1 1 1 0 0 0 0 1 1 0 0 -0 -0 -0 1 1 0 0 0 0 0 nan
nan 1 1 1 1 0 0 0 0 0 0 1 1 1 1 1 1 0 0 1 1 1 1 1 0 0 0 0 0 0 0 0 0 0 0 0 0 0 0 1 1 1 1 1 1 1 1 1 1 1 1 0 0 0 0 1 1 0 -0 -0 -0 0 1 1 1 1 1 0 nan
nan 1 1 1 1 0 0 0 0 0 1 1 1 1 1 1 1 1 1 1 1 1 1 1 0 0 0 0 0 0 0 0 0 0 0 0 0 0 0 1 1 1 1 1 1 1 1 1 1 1 1 1 0 0 0 1 1 0 0 -0 -0 0 1 1 1 1 1 1 nan
nan 1 1 1 1 0 0 0 0 0 1 1 1 1 1 1 0 1 1 1 1 1 1 1 0 0 0 0 0 0 0 0 0 0 0 0 0 0 0 0 0 1 1 1 1 1 0 0 0 1 1 1 0 0 0 1 1 0 0 0 0 0 0 1 1 1 1 0 nan
nan 1 1 1 1 0 0 0 0 0 1 1 1 1 1 1 1 1 0 1 1 1 1 1 0 0 0 0 0 0 0 0 0 0 0 0 0 0 0 0 0 0 1 1 1 1 0 0 0 0 1 1 1 0 0 0 1 0 0 0 0 0 0 0 1 1 1 1 nan
nan 1 1 1 0 0 0 0 0 0 1 1 1 1 1 1 1 0 0 0 1 1 1 1 0 0 0 0 0 0 0 0 0 0 0 0 0 0 0 0 0 0 0 1 1 0 0 0 0 0 0 1 1 0 0 0 0 0 0 0 1 0 0 0 1 1 1 1 nan
nan 1 1 1 0 0 -0 0 0 0 1 1 1 1 1 1 1 0 0 0 1 1 1 1 0 0 0 0 0 0 0 0 0 0 0 0 0 0 0 0 0 0 0 1 1 1 0 0 0 0 0 0 0 1 1 0 0 0 0 0 0 0 0 0 1 1 1 1 nan
nan 1 1 1 0 0 0 0 0 1 1 1 1 1 1 1 1 0 0 1 1 1 1 1 1 0 0 0 0 0 0 0 0 0 0 0 0 0 0 0 0 0 0 1 1 1 1 1 0 0 0 -0 0 0 1 1 0 0 0 0 0 0 0 0 1 1 1 1 nan
nan 1 1 0 0 0 0 0 0 1 1 1 1 1 1 1 1 0 0 0 1 1 1 1 1 1 0 0 0 0 0 0 0 0 0 0 0 0 0 0 0 0 0 0 1 1 1 1 1 0 0 -0 -0 0 0 1 1 0 0 0 0 0 0 0 1 1 1 0 nan
nan 1 1 0 0 0 0 0 0 1 1 1 1 1 1 1 1 0 0 0 1 1 1 1 1 1 1 0 0 0 0 0 0 0 0 0 0 0 0 0 1 0 1 0 1 1 1 1 1 1 0 0 -0 -0 0 0 0 1 1 1 1 1 1 1 1 1 1 0 nan
nan 1 1 0 0 0 0 0 0 1 1 1 1 1 1 1 1 0 0 0 1 1 1 1 1 1 1 1 0 0 0 0 0 0 0 0 0 0 0 1 1 1 1 1 0 0 1 1 1 1 0 0 0 -0 0 0 0 0 0 1 1 1 1 1 0 0 1 1 nan
nan 1 1 0 0 0 0 0 0 0 1 1 1 1 1 1 0 0 0 0 0 0 1 1 1 1 1 1 1 1 0 0 0 0 0 0 0 0 0 0 1 1 1 1 0 0 0 0 1 1 1 0 0 -0 -0 0 0 0 0 1 1 1 1 0 0 0 0 0 nan
nan 1 1 0 0 1 1 0 0 0 1 1 1 1 1 0 0 0 1 1 0 0 0 1 1 1 1 0 1 1 1 0 0 0 0 0 0 0 0 0 0 1 1 1 1 0 0 0 0 1 1 0 0 0 0 0 0 0 0 0 1 0 0 -0 0 0 0 -0 nan
nan 1 1 1 1 1 0 0 0 0 1 1 1 1 1 1 0 0 1 1 0 0 0 1 1 1 1 0 0 1 1 1 0 0 0 0 0 0 0 0 0 1 1 1 1 0 0 0 0 0 0 0 0 0 0 0 0 0 0 0 0 0 -0 -0 0 0 0 0 nan
nan 1 1 1 1 1 0 0 0 0 1 1 1 1 1 0 0 0 0 1 1 0 0 0 1 1 1 0 0 0 1 1 1 0 0 0 0 0 0 0 0 1 1 1 1 0 0 0 1 1 0 0 0 0 0 -0 -0 0 0 1 0 0 0 0 0 0 1 1 nan
nan 1 1 1 1 1 0 0 0 0 0 1 1 1 1 0 0 0 0 0 0 1 1 1 1 1 0 0 0 0 1 1 1 1 0 0 0 0 0 0 0 0 1 1 1 0 0 0 0 1 0 -0 -0 -0 -1 -1 -0 0 1 0 0 0 0 0 0 0 1 1 nan
nan 1 1 1 1 0 0 -0 -0 0 1 1 1 1 1 0 0 0 0 0 0 1 1 1 1 1 0 0 0 0 0 1 1 1 1 0 0 0 0 0 1 1 1 1 1 0 0 0 0 0 -0 -1 -1 -1 -1 -0 0 0 1 0 0 0 0 0 0 0 0 1 nan
nan 2 1 1 1 0 -0 -0 -0 0 1 1 1 1 1 0 0 0 0 0 0 1 1 1 1 1 0 0 0 0 0 0 1 1 1 1 0 0 0 1 1 1 1 1 1 0 0 0 -0 -1 -1 -1 -1 -1 -0 0 0 1 1 1 1 0 0 0 0 0 -0 0 nan
nan 1 1 1 0 0 -0 -0 -0 0 1 1 1 1 0 0 0 0 0 0 0 1 1 1 1 1 0 0 0 0 0 0 0 0 0 0 0 0 0 1 1 1 1 1 1 1 1 1 1 0 -1 -1 -0 -0 -0 0 0 0 0 1 0 0 -0 -0 -0 0 -0 0 nan
nan 1 1 1 0 -0 -0 -0 0 1 1 1 1 1 0 0 0 0 0 0 1 1 1 1 1 1 0 0 0 0 0 0 0 0 0 0 0 0 0 1 1 1 1 1 1 0 1 1 2 1 0 -0 -0 0 0 0 0 0 0 0 0 0 -0 -0 -0 -0 0 0 nan
nan 1 1 1 0 -0 -0 0 0 1 1 1 1 1 1 0 0 0 0 0 1 1 1 1 1 0 0 0 0 0 1 1 0 0 -0 -0 -0 0 0 1 1 0 0 0 0 0 1 1 2 1 0 -0 -0 -0 1 0 0 0 0 0 0 0 -0 -0 0 0 0 0 nan
nan 1 1 1 0 -0 -0 0 0 0 1 1 1 1 1 0 0 0 0 0 1 1 1 1 1 0 0 0 0 1 1 1 0 0 0 -0 -0 0 0 0 0 0 0 0 0 0 0 1 1 1 0 -0 -0 -0 0 0 0 -0 0 0 0 0 0 0 0 0 0 0 nan
nan 1 1 0 0 -0 0 0 0 0 1 1 1 1 0 0 0 0 0 0 0 1 1 1 0 0 0 0 0 1 1 1 0 0 0 -0 -0 0 0 0 0 0 0 0 0 0 0 1 1 1 0 -1 -1 0 1 0 -0 -0 -0 0 0 0 0 0 0 0 0 0 nan
nan 1 1 0 0 0 -0 0 0 1 1 1 1 0 0 0 0 0 0 0 0 0 1 0 0 0 0 0 0 0 0 0 0 0 0 -0 -0 0 0 1 1 0 0 0 0 0 0 1 1 0 -0 -1 -1 0 0 0 -0 -0 -0 0 0 0 0 0 0 0 0 0 nan
nan 1 1 0 0 -0 0 0 1 1 1 1 0 0 0 0 0 1 1 0 0 0 0 0 0 0 0 0 0 0 0 0 0 0 0 -0 -0 0 0 1 1 0 0 0 0 0 0 1 1 0 -0 -1 -0 0 1 0 0 -0 0 0 0 0 0 -0 0 0 0 0 nan
nan 1 1 0 -0 -0 0 1 1 1 1 0 -0 -0 0 0 1 1 1 0 0 0 0 0 0 0 0 0 0 0 0 0 0 0 0 0 -0 0 0 1 1 1 0 0 0 0 0 1 1 0 -0 -0 -0 0 1 0 0 -0 0 0 0 0 0 -0 0 0 0 0 nan
nan 1 0 0 -0 0 1 1 1 1 0 0 -0 -0 0 1 1 1 0 0 0 0 0 0 0 0 0 0 0 0 0 0 0 0 0 0 0 0 0 1 1 1 0 0 0 0 0 1 1 1 -0 -1 -0 0 0 0 0 -0 -0 0 0 0 0 0 0 0 0 0 nan
nan 1 0 -0 -0 0 1 1 1 1 0 -0 -0 -0 0 1 1 1 0 0 0 0 0 0 0 0 0 0 0 0 0 0 0 0 0 0 0 0 0 1 1 1 1 0 0 0 0 0 1 1 1 -0 -0 0 0 0 0 -0 -0 -0 0 0 0 0 -0 -0 0 0 nan
nan 0 0 -0 0 0 0 1 1 0 -0 -0 -0 0 1 1 1 1 1 0 0 -0 0 0 0 0 0 0 0 0 0 0 0 0 0 0 0 0 0 1 1 1 1 0 0 0 -0 0 0 1 1 0 0 0 1 0 0 -0 -0 -0 0 -0 -0 -0 -0 -0 -0 -0 nan
nan 0 0 0 0 0 0 1 1 0 -0 -1 -0 0 1 1 1 1 1 0 -0 -0 0 0 0 0 0 0 0 0 0 0 0 0 0 0 -0 -0 0 1 1 1 1 1 0 0 0 -0 -0 0 0 0 0 0 1 0 0 -0 -0 -0 -0 -0 -0 -0 -0 -0 -0 -0 nan
nan 0 0 0 0 0 1 1 0 -0 -1 -0 0 1 1 1 1 1 1 0 -0 -0 0 0 0 0 0 0 0 0 0 0 0 0 0 0 0 -0 0 1 1 1 1 1 0 0 0 -0 -0 -0 0 -0 -0 0 1 0 0 -0 -0 -0 -0 -0 -0 -0 -0 -0 -0 -0 nan
nan 1 0 0 0 0 1 0 0 -0 -0 0 1 1 1 1 1 1 0 -0 -0 0 0 0 0 0 0 0 0 0 0 0 0 -0 0 0 0 -0 -0 0 1 1 1 1 1 0 0 0 -0 -0 -0 -0 -1 -0 0 0 0 -0 -0 -0 -0 -0 -1 -0 -0 -0 -0 -0 nan
nan 1 1 0 0 0 0 0 -0 -0 0 1 1 1 1 1 1 1 0 0 -0 0 0 0 0 0 0 0 0 0 0 0 0 0 -0 0 0 -0 -0 -0 0 1 1 1 1 1 0 0 0 -0 -0 -1 -1 -1 -0 -0 -0 -0 -0 -0 -0 -0 -1 -0 -0 -0 0 0 nan
nan 1 1 0 0 0 0 0 -0 0 1 1 1 1 1 1 1 1 0 0 -0 0 0 0 1 0 0 -0 -0 -0 0 0 0 0 0 0 0 -0 -0 -0 0 1 1 1 1 1 0 0 0 0 -0 -0 -1 -0 -0 -0 -0 -0 -0 -0 -0 -0 -0 -0 -0 -0 -0 0 nan
nan nan nan nan nan nan nan nan nan nan nan nan nan nan nan nan nan nan nan nan nan nan nan nan nan nan nan nan nan nan nan nan nan nan nan nan nan nan nan nan nan nan nan nan nan nan nan nan nan nan nan nan nan nan nan nan nan nan nan nan nan nan nan nan nan nan nan nan nan
Wind_Speed
22 21 20 20 19 19 18 17 17 17 16 16 17 17 18 19 19 19 19 19 19 19 19 19 19 19 19 19 19 19 20 20 20 20 21 21 21 22 22 22 22 23 23 24 24 25 25 26 26 27 28 28 28 27 27 26 25 25 25 26 27 27 28 28 29 29 29 29 29
22 21 20 20 20 19 18 18 17 17 16 16 17 17 18 18 19 19 19 19 19 19 19 19 19 19 19 19 19 20 20 20 20 21 21 21 21 22 22 22 23 23 23 24 24 25 25 26 26 27 28 28 28 27 26 25 25 25 25 26 26 27 28 28 29 29 29 29 29
22 21 21 20 20 19 18 18 17 17 17 17 17 17 18 18 19 19 19 19 19 19 19 19 19 19 19 19 19 20 20 20 21 21 21 21 22 22 22 23 23 23 24 24 24 25 25 25 26 27 28 28 28 27 26 25 24 24 25 26 26 27 27 28 28 28 28 29 29
22 21 21 21 20 19 19 18 17 17 17 17 17 17 18 18 19 19 19 19 19 18 18 19 19 19 19 19 19 20 20 20 20 21 21 22 22 22 22 23 23 24 24 24 25 25 25 25 26 27 28 28 27 26 26 25 24 24 25 25 26 27 27 28 28 28 28 28 28
22 22 21 21 20 19 19 18 17 17 17 17 17 18 18 18 19 19 19 19 19 18 18 18 18 18 19 19 19 20 20 20 20 21 21 21 22 22 23 23 24 24 24 24 25 25 25 25 26 27 27 27 27 26 25 24 24 24 25 25 26 27 27 28 28 28 28 28 28
23 22 21 21 20 20 19 18 17 17 17 17 17 17 18 18 19 19 19 19 18 18 18 18 18 18 18 19 19 19 19 20 20 20 21 21 22 22 23 23 23 24 24 24 25 25 25 25 26 27 27 27 26 26 25 24 24 25 25 26 26 27 27 28 28 28 28 28 28
23 22 21 21 21 20 19 19 18 17 17 17 17 17 17 18 18 19 19 19 18 18 18 18 18 18 18 19 19 19 19 19 20 20 21 21 22 22 22 23 23 24 24 24 24 24 25 25 26 26 26 26 26 25 24 24 24 25 26 27 27 27 28 28 28 28 28 28 28
23 22 22 21 21 20 20 19 18 17 17 17 17 17 17 18 18 18 19 18 18 18 17 17 17 18 18 18 19 19 19 19 20 20 20 21 21 22 22 23 23 23 23 24 24 24 24 24 25 25 26 25 25 25 24 24 24 25 26 27 27 27 28 28 28 28 28 28 28
24 23 22 22 21 20 20 19 18 17 17 17 17 17 17 18 18 18 18 18 18 18 17 17 17 17 18 18 18 19 19 19 20 20 20 21 21 22 22 23 23 23 23 23 23 24 24 24 24 25 24 24 24 24 24 24 24 25 26 27 28 28 27 27 27 27 27 28 29
24 23 22 22 21 21 20 19 18 17 17 17 17 17 17 17 18 18 18 18 18 17 17 17 17 17 18 18 18 18 19 19 20 20 20 21 21 22 22 23 23 23 23 23 23 23 24 24 24 24 24 23 23 24 24 24 25 26 26 27 27 27 27 26 26 26 27 28 30
24 23 22 22 22 21 20 19 18 17 17 16 16 17 17 17 17 18 18 18 18 17 17 16 17 17 17 18 18 18 19 19 19 20 20 21 21 21 22 22 23 23 23 23 23 23 24 24 24 24 24 23 23 24 24 24 25 25 26 26 26 26 26 25 25 25 27 29 31
24 23 23 22 22 22 21 20 18 17 17 16 16 16 17 17 17 18 18 18 18 17 16 16 16 17 17 17 18 18 18 19 19 20 20 20 21 21 22 22 22 23 23 23 23 23 23 24 24 24 24 23 23 24 24 24 25 25 25 25 25 25 25 25 25 26 28 30 33
24 24 23 23 23 22 21 20 18 17 17 16 16 16 16 17 17 17 18 18 17 17 16 16 16 17 17 17 17 18 18 19 19 19 20 20 21 21 22 22 22 22 22 22 23 23 23 23 23 23 24 24 24 24 24 24 24 24 25 25 25 25 25 25 26 27 30 32 34
25 25 24 24 23 22 21 20 18 17 17 16 16 16 16 16 17 17 17 17 17 16 16 16 16 16 16 17 17 18 18 19 19 19 20 20 21 21 22 22 22 22 22 22 22 22 22 22 22 23 23 24 24 24 24 24 24 24 25 25 25 26 26 26 27 29 31 33 35
26 25 25 24 24 23 21 20 18 17 17 16 16 16 16 16 17 17 17 17 17 16 16 16 16 16 16 17 17 18 18 19 19 19 20 20 20 21 21 22 22 22 22 22 22 22 22 22 22 22 23 23 24 24 24 24 24 24 25 25 26 26 27 28 29 31 33 34 35
26 26 25 25 24 23 21 20 18 17 17 16 16 16 16 16 16 17 17 17 16 16 16 16 16 16 16 16 17 18 18 19 19 19 20 20 20 21 21 21 22 22 22 22 22 22 21 21 21 22 22 23 24 24 24 24 24 24 25 25 26 28 29 31 33 35 37 39 40
27 26 26 25 24 23 21 20 18 17 17 16 16 16 16 16 16 16 16 16 16 16 16 15 15 16 16 16 17 18 18 19 19 19 19 20 20 21 21 22 22 22 22 22 22 22 21 21 21 22 22 23 23 24 24 24 24 25 25 26 28 30 33 35 37 39 40 42 42
27 26 26 25 24 23 21 20 18 18 17 16 16 16 16 16 16 16 16 16 16 16 16 15 15 15 16 16 17 17 18 18 19 19 19 20 20 21 21 22 22 22 22 22 22 22 22 22 22 22 22 23 23 23 24 24 25 26 27 29 32 34 36 36 35 35 35 36 37
28 27 26 25 24 23 21 20 19 18 17 16 16 16 16 16 16 16 16 16 16 16 16 15 15 15 16 16 17 17 17 18 18 18 19 19 20 21 21 21 22 22 21 21 21 21 21 22 22 22 23 23 23 23 24 24 26 28 31 34 36 36 35 32 29 27 26 26 27
28 27 26 25 24 23 21 20 19 18 17 17 16 16 16 16 16 16 16 16 15 15 15 15 15 15 16 16 17 17 17 17 18 18 18 19 20 20 21 21 22 21 21 21 21 21 21 22 22 23 23 23 24 24 25 26 29 32 35 37 36 33 30 28 26 24 22 20 20
28 27 26 25 24 23 22 20 19 18 18 17 16 16 16 16 16 16 16 15 15 15 15 15 15 15 16 16 16 17 17 17 17 18 18 19 20 20 21 21 21 21 21 21 21 21 21 22 22 23 23 24 24 25 27 29 33 36 37 36 32 29 27 27 26 24 21 19 17
28 27 26 25 24 23 22 21 20 19 18 17 16 16 16 16 16 16 16 16 15 15 15 15 15 15 16 16 16 17 17 17 17 17 18 19 20 20 21 21 21 21 21 20 20 21 21 22 22 23 24 24 25 27 29 33 36 37 35 31 28 27 27 27 27 25 23 20 17
28 27 26 26 25 24 23 22 20 19 18 17 16 16 16 16 16 16 16 16 15 15 15 15 15 15 16 16 16 17 17 17 17 17 18 19 19 20 20 20 20 20 20 20 20 20 21 22 23 23 24 25 27 29 32 35 36 34 30 26 26 26 27 27 27 26 25 22 18
28 27 27 26 26 25 24 22 21 19 18 17 16 16 16 16 16 16 16 16 15 15 14 15 15 15 16 16 16 16 17 17 17 17 17 18 19 20 20 20 20 19 19 19 19 20 21 22 23 24 24 25 27 30 32 34 32 28 25 24 25 26 27 27 28 27 26 24 20
28 28 27 27 26 26 24 23 21 19 18 17 16 16 16 16 16 16 16 15 15 14 14 15 15 15 16 16 16 16 16 17 17 18 18 18 19 19 19 19 19 18 18 18 18 19 20 21 21 22 23 25 27 29 31 30 27 24 23 24 25 26 27 28 29 28 27 25 22
29 29 28 28 27 26 25 23 21 19 18 17 17 17 16 16 16 16 16 15 15 14 14 15 15 15 16 16 16 16 16 16 17 18 18 19 19 19 19 18 18 17 17 17 17 18 19 19 20 20 21 23 26 28 29 26 24 23 23 24 25 26 28 29 30 29 28 26 23
30 29 29 29 28 27 25 23 21 19 18 18 17 17 16 16 16 16 16 15 15 14 14 14 15 15 16 16 16 16 16 16 17 18 18 19 19 19 18 17 17 16 16 16 16 17 18 19 19 19 20 22 26 27 26 24 23 23 23 24 25 26 28 29 30 30 28 26 24
31 30 30 29 29 27 25 23 21 20 19 18 17 17 16 17 17 17 16 15 15 15 14 14 15 15 15 16 16 16 16 16 17 17 18 18 19 18 18 17 16 15 15 15 15 16 17 18 18 18 19 22 25 26 24 22 21 22 23 23 24 26 27 29 30 30 28 26 24
31 31 30 30 29 27 25 24 22 20 19 18 17 17 17 17 17 17 16 16 15 15 14 14 15 15 15 15 15 15 16 16 17 17 18 18 18 18 17 16 15 14 14 14 15 15 16 17 17 17 19 22 24 24 22 20 21 21 22 23 24 25 27 29 30 30 29 26 24
32 31 31 31 29 28 26 24 22 20 19 18 18 18 18 18 17 17 16 16 15 15 15 15 15 15 15 15 15 15 16 16 16 17 18 18 18 18 17 15 14 13 13 13 14 15 15 15 16 16 18 22 23 23 21 20 20 21 22 23 24 25 27 28 29 29 29 27 24
33 32 32 31 30 28 26 24 22 20 19 19 19 19 18 18 17 17 16 16 16 15 15 15 14 14 14 14 15 15 16 16 16 17 17 18 18 17 16 15 13 12 12 12 13 14 14 14 15 16 19 22 23 22 20 20 20 21 22 23 24 25 26 28 29 29 28 27 24
33 33 32 32 30 28 26 24 22 21 20 20 19 19 19 18 17 17 17 17 16 16 15 15 14 14 14 14 14 15 15 16 16 17 17 17 18 17 16 14 13 12 12 12 12 13 13 13 14 16 18 21 22 21 20 20 21 22 22 23 23 24 25 27 28 29 28 27 24
34 34 33 32 30 28 26 24 23 22 21 20 20 19 19 18 17 17 17 17 17 16 15 15 14 14 14 14 14 15 15 15 16 16 17 17 17 17 16 14 13 12 12 12 12 12 12 12 13 15 18 21 22 21 20 20 21 22 22 23 23 24 25 26 28 28 28 27 25
35 34 33 32 31 29 27 25 23 22 21 21 20 19 19 18 18 18 18 18 17 17 16 15 14 13 13 13 14 14 14 15 15 16 16 16 17 17 16 14 13 12 12 11 11 11 11 11 12 14 17 21 21 21 20 20 21 22 22 23 23 23 24 26 27 28 28 27 25
35 35 34 33 31 29 27 25 24 23 22 21 20 19 19 19 19 18 18 18 18 17 16 15 14 13 13 13 13 14 14 14 15 15 16 16 16 16 16 15 13 12 11 11 11 11 11 10 10 13 17 20 21 20 20 21 22 22 22 22 22 23 24 26 27 28 28 27 25
36 35 34 33 31 29 28 26 24 23 22 21 20 19 19 19 19 18 18 18 18 18 16 15 14 13 13 13 13 13 14 14 15 15 15 15 16 16 16 15 13 12 11 11 11 11 10 10 9 11 15 20 21 20 20 22 23 23 22 22 22 23 25 26 27 27 27 27 25
36 35 34 33 31 30 28 26 25 24 22 21 20 19 19 19 19 19 19 19 19 18 16 15 14 14 13 13 13 13 13 14 14 14 15 15 15 16 16 15 14 12 12 11 11 10 10 9 8 10 14 19 21 22 22 23 23 23 22 21 22 23 25 26 27 27 27 26 25
36 35 34 33 32 30 28 27 25 24 22 20 19 19 19 19 19 20 20 20 19 18 17 15 14 14 13 13 13 13 13 13 13 14 14 14 15 15 16 16 14 13 12 12 11 11 10 10 9 8 11 17 21 23 24 24 24 23 21 21 21 23 25 26 27 27 26 26 24
36 35 34 33 32 30 29 27 25 24 22 20 19 19 19 20 20 20 20 20 20 19 17 16 15 14 13 13 13 12 12 12 13 13 14 14 14 15 16 16 15 14 13 12 12 11 11 11 10 8 9 14 19 22 23 23 23 23 22 20 21 22 24 26 26 26 26 25 23
36 35 34 33 32 31 29 27 25 23 21 20 19 19 20 20 21 21 21 21 20 19 18 16 15 14 13 13 13 12 12 12 12 12 13 14 14 15 15 16 16 15 14 13 12 12 12 12 11 9 9 11 16 19 21 21 22 22 22 21 20 22 23 25 26 26 26 25 23
36 35 35 34 32 31 29 27 25 23 21 20 20 20 20 21 21 21 22 21 21 19 18 16 15 14 13 13 13 12 12 11 11 12 12 13 14 14 15 15 16 15 15 14 13 13 12 12 12 11 9 10 14 17 18 19 21 22 22 21 20 21 23 24 25 25 25 25 23
Wind_Direction
258 259 261 263 266 269 273 277 281 285 290 293 296 299 301 302 304 305 306 306 306 306 306 306 307 308 309 310 310 310 310 310 310 310 310 310 311 312 311 311 309 308 306 305 304 302 301 300 300 300 300 300 302 304 306 308 309 310 308 307 304 302 299 296 294 293 293 295 296
258 259 260 262 265 268 272 276 280 285 289 293 295 298 299 301 303 304 305 305 305 306 306 307 308 308 309 310 310 310 310 310 311 311 311 312 312 312 312 311 310 309 308 306 304 303 302 301 300 299 299 301 302 304 306 308 309 309 308 306 305 303 300 298 296 295 295 295 296
258 258 259 261 265 268 272 276 280 284 288 291 294 297 299 301 302 303 304 304 305 306 307 307 308 309 309 310 310 310 310 310 311 311 312 313 313 313 313 312 312 311 309 307 306 304 303 301 300 299 300 301 302 304 305 307 308 308 307 306 305 303 302 299 298 297 296 296 297
257 257 258 261 264 267 271 274 278 282 287 290 293 296 298 300 301 302 303 305 306 306 306 307 307 308 309 310 310 310 310 311 311 312 313 313 314 315 314 314 313 312 311 309 307 306 304 302 301 300 300 301 302 304 306 307 308 307 306 306 305 304 302 301 300 299 298 298 298
256 257 258 261 263 266 269 273 277 281 285 289 292 295 297 299 301 302 303 305 306 306 306 307 307 308 309 309 310 310 311 312 312 313 313 314 315 315 315 315 314 313 312 311 309 307 306 303 302 301 301 302 303 305 306 308 308 307 306 305 305 303 302 301 300 300 299 299 300
255 256 258 259 262 265 268 272 276 280 284 287 291 294 296 298 300 301 303 304 305 306 306 306 307 308 308 309 310 311 311 312 313 313 314 315 316 316 316 315 314 314 313 312 310 309 307 305 303 302 303 304 305 306 307 308 307 306 305 305 304 303 302 301 300 300 299 299 300
255 255 256 258 260 263 266 270 274 278 282 286 289 293 295 297 298 300 302 303 304 305 305 305 306 307 308 309 310 311 312 313 313 314 315 315 316 316 316 315 315 314 313 313 311 310 309 307 305 304 305 306 307 308 308 308 307 305 304 303 304 303 302 301 301 301 300 300 301
253 254 255 257 259 261 265 269 273 277 281 285 289 291 294 295 297 299 301 302 303 303 304 304 305 306 308 309 310 311 312 313 314 315 316 316 316 316 316 315 315 314 314 313 312 311 310 308 307 307 307 308 308 309 309 308 306 304 303 303 304 304 303 302 302 302 302 302 302
252 252 254 255 258 260 264 268 271 276 280 284 287 290 292 294 296 298 300 301 301 302 302 303 305 306 307 309 310 311 312 313 314 315 316 316 316 316 315 315 315 315 314 314 313 313 311 310 309 309 309 309 309 309 310 309 306 304 303 304 305 305 305 305 304 304 304 303 303
251 252 253 254 256 259 262 266 270 275 279 283 286 289 291 293 296 298 299 299 299 300 302 303 304 306 307 308 310 311 312 313 314 315 315 316 316 316 315 315 315 315 315 315 315 314 313 312 311 311 311 311 310 310 310 309 307 306 305 306 306 307 307 307 307 305 304 303 303
251 251 252 253 255 258 261 265 269 273 278 282 285 287 290 292 295 296 297 297 298 300 301 303 304 305 306 308 309 311 312 313 313 314 315 315 315 315 315 315 316 316 316 316 315 315 314 313 313 313 313 312 312 311 311 310 309 308 308 309 309 309 309 309 308 306 303 302 302
249 250 250 252 254 257 260 264 268 273 277 280 283 286 289 291 293 294 295 296 297 299 301 302 303 304 306 308 309 310 311 312 312 313 314 314 315 315 315 315 316 316 316 316 316 315 315 314 314 313 313 313 312 312 312 312 311 311 311 311 310 309 309 310 309 307 304 303 303
248 248 249 250 253 255 259 263 267 271 275 279 282 285 288 290 291 292 293 295 297 298 300 301 302 304 305 307 309 309 310 310 311 312 313 314 315 315 315 315 316 316 316 316 316 315 314 314 313 312 312 312 312 313 313 314 313 312 312 311 310 309 309 310 309 307 306 305 306
246 247 248 249 252 255 258 262 266 270 274 277 281 284 286 287 289 290 292 293 295 297 298 299 301 303 305 307 308 308 308 309 310 311 312 314 314 315 315 315 315 315 315 315 315 314 313 313 312 311 311 311 313 314 316 316 315 313 312 310 309 308 308 309 308 307 306 306 308
245 245 247 249 251 254 257 261 265 269 272 275 279 281 284 285 287 288 290 292 294 295 296 298 300 303 305 306 307 307 307 308 309 310 312 313 314 314 314 314 314 314 314 313 313 313 312 312 311 310 310 311 314 316 317 317 316 313 311 309 308 307 307 306 306 305 304 303 304
244 245 246 247 250 253 256 260 264 267 270 274 277 279 281 284 286 287 288 290 292 293 295 298 300 302 303 304 304 305 305 306 308 310 311 312 313 313 313 313 313 313 312 312 312 312 311 311 310 310 311 312 314 317 318 317 315 313 310 308 307 306 305 305 304 303 302 301 301
244 244 245 247 249 252 255 259 262 265 268 272 275 277 280 282 284 285 286 288 290 292 294 297 300 302 302 302 303 303 304 305 307 309 310 311 312 312 312 312 312 312 311 311 311 311 311 311 311 311 312 313 315 317 317 316 315 312 311 310 308 307 307 308 308 308 307 306 305
244 244 245 246 248 251 254 257 260 263 267 270 273 275 277 280 282 283 284 286 289 291 294 297 299 300 301 302 302 302 303 304 306 308 309 310 311 311 311 311 310 310 310 310 310 310 311 311 311 312 313 314 315 316 316 315 314 313 313 313 312 312 313 315 316 317 316 315 313
243 243 244 245 247 250 252 255 258 262 265 268 271 273 275 278 280 281 283 285 287 290 293 295 297 299 300 300 301 301 302 303 305 306 308 309 309 310 310 309 309 309 309 310 310 310 311 311 311 312 313 314 315 316 316 316 316 317 317 317 317 319 321 324 326 327 327 325 323
243 243 244 245 247 249 251 254 257 260 263 266 268 271 273 276 277 279 281 283 285 288 291 294 296 298 298 299 300 300 301 302 303 305 307 308 308 308 308 309 309 309 309 310 310 310 310 310 311 311 312 314 316 318 319 320 321 321 321 321 322 325 329 332 333 333 332 330 327
243 243 243 244 246 247 250 252 255 258 261 264 266 269 271 273 275 277 279 281 283 285 289 292 295 297 297 298 298 299 300 301 302 304 306 307 307 308 308 309 309 309 310 309 309 309 309 310 310 311 313 316 319 322 324 326 325 324 323 324 328 332 335 336 336 335 332 329 327
243 243 243 243 244 246 248 250 253 256 259 262 264 267 269 271 273 275 277 279 281 284 287 291 293 295 296 296 297 298 299 300 302 304 305 306 307 308 308 308 309 309 309 309 309 309 309 309 310 312 315 320 325 328 329 329 326 325 325 329 333 336 338 339 339 338 335 331 329
242 242 242 242 243 244 246 248 251 254 257 260 262 264 266 269 271 273 275 277 279 283 286 289 291 292 293 295 296 297 299 300 301 303 305 305 306 307 308 309 309 309 310 310 309 310 310 310 312 316 322 326 329 330 329 327 324 324 327 332 335 337 340 341 342 341 339 335 332
241 241 240 240 241 242 244 247 250 253 255 258 260 262 264 266 268 271 273 275 278 281 284 286 288 290 291 293 294 296 298 300 302 303 304 305 306 307 308 309 310 310 310 310 310 310 311 312 317 322 326 328 328 326 324 322 323 326 331 334 336 338 340 343 344 344 342 338 335
240 239 239 239 240 241 243 246 249 251 254 256 258 259 261 263 266 268 270 273 276 279 282 284 286 288 289 290 292 294 297 299 301 302 303 304 306 307 309 310 311 311 311 310 310 310 311 313 318 322 324 323 322 320 319 321 327 332 336 336 337 339 341 343 345 345 343 339 335
238 238 237 237 239 240 242 245 247 250 252 254 255 257 259 261 264 266 268 270 273 276 279 281 283 285 287 289 291 293 295 298 300 301 303 304 306 309 311 312 312 312 312 311 311 311 312 314 317 319 320 320 319 318 320 325 332 337 338 338 338 340 342 344 345 345 343 339 335
237 236 236 236 238 239 241 244 246 248 249 251 252 254 256 259 261 263 266 268 270 273 275 278 281 283 285 287 290 292 294 296 298 300 301 304 307 309 312 313 314 313 312 311 312 312 313 314 317 320 322 322 320 319 321 327 333 337 339 338 339 340 343 345 345 345 342 339 335
235 235 235 236 237 238 240 242 244 245 247 249 251 253 255 256 258 260 263 265 267 269 272 275 278 280 283 286 289 292 294 295 296 298 300 303 306 310 312 314 314 313 312 312 312 312 313 314 319 324 326 324 321 320 322 327 333 337 339 339 339 341 343 344 344 344 342 339 335
235 235 235 235 236 238 239 241 242 244 246 247 249 251 252 254 256 258 260 262 264 266 269 271 274 277 281 284 287 290 292 294 296 297 300 303 306 309 312 313 313 313 312 311 311 311 312 316 322 328 329 327 323 321 322 327 333 338 340 340 340 341 342 343 344 344 343 341 336
234 234 234 235 236 237 238 240 241 243 244 246 247 248 250 252 254 256 258 259 261 264 266 269 272 275 279 282 285 288 290 292 295 297 300 302 305 308 310 312 312 311 311 310 310 310 312 317 324 330 331 329 324 321 322 327 334 338 340 340 340 340 341 342 344 345 345 343 338
233 233 233 234 235 236 238 239 240 242 243 244 245 247 249 250 252 254 255 257 259 261 264 267 270 273 277 281 284 287 290 293 295 297 299 302 304 307 310 311 311 310 309 309 309 310 313 318 325 330 331 329 323 320 321 327 334 338 340 340 340 340 340 341 343 345 345 344 340
232 232 233 233 234 235 236 238 239 240 241 242 244 246 248 249 251 252 253 255 256 258 260 264 268 272 276 279 282 286 289 292 295 297 299 301 304 307 309 311 311 309 308 307 307 309 312 318 326 332 333 329 322 319 320 327 334 339 340 340 339 339 339 340 343 345 346 345 341
231 231 232 233 233 234 235 236 237 238 239 241 243 245 247 248 249 250 251 252 254 256 258 262 266 270 274 277 280 283 287 291 294 297 299 301 304 307 309 311 310 308 307 306 306 308 311 318 326 334 335 329 322 318 321 329 336 340 340 339 338 338 338 340 343 345 346 345 342
230 231 231 232 232 233 234 235 235 237 238 240 242 244 246 247 247 248 249 251 253 255 257 260 263 267 271 274 278 282 287 291 294 297 299 301 304 307 309 311 310 307 305 304 304 306 310 317 328 338 338 330 322 318 323 332 339 341 340 339 338 337 338 340 342 345 345 345 342
229 230 231 231 231 232 232 233 234 235 237 239 241 243 245 246 246 247 248 250 251 253 255 258 261 265 269 273 278 283 288 291 294 297 299 302 305 308 310 311 310 306 303 301 301 302 305 313 328 341 341 333 323 321 328 338 342 342 340 338 337 337 338 340 343 344 345 344 342
229 229 230 231 231 231 231 232 233 234 236 238 240 242 244 245 246 246 247 248 250 252 254 256 259 262 266 271 277 282 287 290 294 297 300 303 306 309 311 312 310 306 301 299 298 298 300 306 322 340 343 335 327 327 334 341 342 340 338 337 336 337 338 341 343 344 345 344 342
228 229 230 230 230 230 231 231 232 233 235 236 239 242 243 244 245 245 245 247 249 251 253 255 258 261 265 270 274 280 284 289 293 296 300 304 307 310 312 313 311 306 301 297 295 294 295 298 312 334 342 337 331 333 338 340 339 336 335 335 336 337 338 341 343 344 344 343 342
227 228 229 229 230 230 230 231 231 232 234 236 238 241 243 243 244 244 245 247 249 251 253 254 256 259 263 268 272 277 282 287 292 296 301 305 308 310 311 312 311 308 302 297 295 293 291 291 299 322 340 339 334 334 336 336 334 332 331 332 334 336 338 339 341 343 343 342 341
227 228 228 229 229 229 230 230 231 232 233 234 236 239 241 242 243 243 245 246 248 250 252 253 254 257 260 265 270 275 281 286 291 296 301 305 308 310 311 312 311 309 304 299 296 292 289 287 290 305 331 338 333 331 331 329 328 328 327 329 332 335 336 337 339 340 341 340 340
226 227 228 228 229 229 229 230 231 231 232 233 235 238 240 242 243 243 245 246 247 249 250 252 253 255 258 262 268 273 279 285 290 296 301 305 307 309 310 311 311 310 306 301 296 292 289 285 286 295 319 334 329 326 324 324 325 326 326 327 330 333 334 335 336 337 337 337 338
225 226 227 228 228 229 229 230 230 230 231 232 234 237 240 241 242 243 243 245 246 248 249 250 251 252 255 260 265 271 277 283 289 294 299 303 306 308 309 309 310 309 307 302 297 292 288 286 285 293 311 328 324 320 320 323 325 326 327 327 329 331 332 332 332 333 334 335 336
Height
1520 1520 1520 1520 1520 1520 1519 1519 1519 1518 1518 1517 1517 1516 1515 1515 1514 1514 1513 1512 1511 1510 1510 1509 1508 1507 1506 1505 1504 1503 1502 1501 1500 1499 1498 1497 1496 1495 1494 1493 1492 1491 1490 1489 1488 1487 1486 1485 1484 1482 1481 1479 1478 1477 1476 1475 1474 1472 1471 1470 1469 1467 1466 1464 1463 1462 1461 1460 1459
1519 1519 1519 1518 1518 1518 1518 1517 1517 1516 1516 1515 1515 1514 1514 1513 1513 1512 1511 1510 1510 1509 1508 1507 1506 1505 1504 1504 1503 1502 1500 1499 1499 1498 1497 1496 1494 1494 1493 1491 1490 1489 1488 1487 1486 1485 1484 1483 1482 1480 1479 1478 1476 1475 1474 1473 1472 1470 1469 1468 1466 1465 1464 1462 1461 1460 1459 1458 1457
1517 1517 1517 1516 1516 1516 1516 1516 1515 1515 1514 1514 1513 1513 1512 1512 1511 1510 1509 1509 1508 1507 1506 1505 1504 1504 1503 1502 1501 1500 1499 1498 1497 1496 1495 1494 1493 1492 1491 1490 1489 1488 1487 1485 1484 1483 1482 1481 1480 1478 1477 1475 1474 1473 1472 1471 1470 1469 1467 1466 1464 1463 1462 1460 1459 1458 1457 1456 1455
1515 1515 1514 1514 1514 1514 1514 1514 1514 1513 1513 1512 1511 1511 1510 1510 1509 1509 1508 1507 1506 1505 1504 1504 1503 1502 1501 1500 1499 1499 1498 1496 1495 1494 1493 1492 1491 1490 1489 1488 1487 1486 1485 1484 1483 1482 1480 1479 1478 1476 1475 1474 1472 1471 1470 1469 1468 1467 1465 1464 1463 1461 1460 1459 1457 1456 1455 1454 1453
1513 1513 1513 1513 1512 1512 1512 1512 1512 1511 1511 1510 1510 1509 1509 1508 1507 1507 1506 1505 1504 1504 1503 1502 1501 1500 1499 1499 1498 1497 1496 1495 1494 1493 1492 1490 1489 1489 1488 1487 1485 1484 1483 1482 1481 1480 1479 1477 1476 1474 1473 1472 1470 1469 1468 1467 1466 1464 1463 1462 1461 1459 1458 1457 1455 1454 1453 1452 1451
1511 1511 1511 1511 1511 1510 1510 1510 1510 1509 1509 1508 1508 1507 1507 1506 1506 1505 1504 1504 1503 1502 1501 1500 1499 1499 1498 1497 1496 1495 1494 1493 1492 1491 1490 1489 1488 1487 1486 1485 1484 1483 1482 1480 1479 1478 1477 1475 1474 1473 1471 1470 1469 1467 1466 1465 1464 1463 1461 1460 1459 1458 1456 1455 1454 1453 1451 1450 1449
1509 1509 1509 1509 1509 1509 1509 1508 1508 1507 1507 1507 1506 1506 1505 1505 1504 1503 1503 1502 1501 1500 1500 1499 1498 1497 1496 1495 1494 1494 1493 1492 1491 1490 1489 1487 1486 1485 1484 1484 1482 1481 1480 1479 1478 1476 1475 1474 1472 1471 1469 1468 1467 1465 1464 1464 1462 1461 1459 1458 1457 1456 1454 1453 1452 1451 1449 1448 1447
1507 1507 1507 1507 1507 1507 1507 1506 1506 1505 1505 1505 1504 1504 1504 1503 1502 1501 1501 1500 1499 1499 1498 1497 1496 1495 1495 1494 1493 1492 1491 1490 1489 1488 1487 1486 1485 1484 1483 1482 1481 1480 1479 1477 1476 1474 1473 1472 1470 1469 1468 1466 1465 1464 1463 1462 1461 1459 1458 1456 1455 1454 1453 1451 1450 1449 1448 1447 1445
1504 1504 1505 1505 1505 1505 1505 1504 1504 1504 1503 1503 1503 1502 1502 1501 1500 1500 1499 1499 1498 1497 1497 1496 1495 1494 1493 1492 1491 1490 1489 1489 1487 1486 1485 1484 1484 1482 1481 1480 1479 1478 1477 1476 1474 1473 1471 1470 1469 1468 1466 1465 1464 1462 1461 1460 1459 1457 1456 1454 1453 1452 1451 1450 1449 1447 1446 1445 1443
1502 1503 1503 1503 1503 1503 1503 1502 1502 1502 1501 1501 1501 1500 1500 1499 1499 1498 1498 1497 1496 1496 1495 1494 1493 1492 1491 1491 1490 1489 1488 1487 1486 1485 1484 1483 1482 1481 1480 1479 1478 1476 1475 1474 1473 1471 1470 1469 1467 1466 1465 1464 1462 1461 1459 1459 1457 1456 1454 1453 1451 1450 1449 1448 1447 1446 1444 1443 1441
1500 1501 1501 1501 1501 1501 1501 1500 1500 1500 1499 1499 1499 1499 1498 1497 1497 1496 1496 1495 1494 1494 1493 1493 1492 1491 1490 1489 1488 1487 1486 1485 1484 1483 1482 1481 1481 1479 1479 1477 1476 1475 1474 1472 1471 1469 1468 1467 1465 1464 1463 1462 1461 1459 1458 1457 1456 1454 1453 1451 1450 1448 1447 1446 1445 1444 1442 1441 1439
1499 1499 1499 1499 1499 1499 1499 1499 1498 1498 1498 1497 1497 1497 1496 1496 1495 1494 1494 1494 1493 1492 1492 1491 1490 1489 1488 1488 1487 1486 1485 1484 1483 1482 1481 1480 1479 1478 1477 1476 1474 1473 1472 1471 1469 1468 1467 1465 1464 1463 1461 1460 1459 1458 1456 1455 1454 1453 1451 1449 1448 1447 1445 1444 1443 1442 1440 1439 1437
1496 1497 1497 1497 1497 1497 1497 1496 1496 1496 1496 1495 1495 1495 1494 1494 1494 1493 1492 1492 1491 1491 1490 1489 1489 1488 1487 1486 1485 1484 1483 1482 1481 1480 1479 1479 1478 1476 1475 1474 1473 1472 1470 1469 1468 1466 1465 1464 1463 1461 1460 1459 1458 1456 1455 1454 1452 1451 1449 1448 1447 1445 1444 1442 1441 1440 1439 1437 1435
1494 1494 1494 1494 1495 1495 1494 1494 1494 1494 1494 1494 1493 1493 1493 1492 1492 1491 1491 1490 1489 1489 1488 1488 1487 1486 1485 1484 1483 1482 1482 1481 1480 1479 1478 1477 1476 1475 1474 1473 1471 1470 1469 1468 1466 1465 1464 1463 1461 1460 1459 1457 1456 1455 1454 1453 1451 1449 1448 1446 1445 1443 1442 1441 1439 1438 1436 1435 1433
1492 1492 1492 1492 1492 1492 1492 1492 1492 1492 1492 1492 1491 1491 1491 1490 1490 1489 1489 1488 1488 1487 1487 1486 1485 1484 1484 1483 1482 1481 1480 1479 1478 1477 1476 1475 1474 1473 1472 1471 1470 1469 1468 1466 1465 1464 1463 1461 1460 1459 1457 1456 1454 1453 1452 1451 1450 1448 1446 1445 1443 1442 1440 1439 1438 1436 1434 1433 1431
1489 1489 1490 1490 1490 1490 1490 1490 1490 1490 1490 1490 1489 1489 1489 1488 1488 1488 1487 1487 1486 1486 1485 1484 1484 1483 1482 1481 1480 1479 1479 1478 1477 1476 1475 1474 1473 1472 1471 1469 1468 1467 1466 1465 1464 1463 1461 1460 1459 1457 1456 1454 1453 1452 1451 1449 1448 1447 1445 1443 1442 1440 1439 1437 1435 1434 1432 1430 1429
1487 1487 1488 1488 1488 1488 1488 1488 1488 1488 1488 1488 1488 1487 1487 1486 1486 1486 1485 1485 1484 1484 1483 1483 1482 1481 1480 1480 1479 1478 1477 1476 1475 1474 1473 1472 1471 1470 1469 1468 1467 1466 1464 1463 1462 1461 1460 1459 1457 1456 1455 1453 1452 1450 1449 1448 1446 1445 1443 1442 1440 1439 1437 1435 1433 1431 1429 1427 1425
1484 1485 1485 1485 1486 1486 1486 1486 1486 1486 1486 1486 1485 1485 1485 1485 1484 1484 1484 1483 1483 1482 1482 1481 1480 1479 1479 1478 1477 1477 1476 1474 1474 1473 1472 1471 1469 1469 1468 1466 1465 1464 1463 1462 1460 1459 1458 1457 1456 1454 1453 1452 1451 1449 1448 1446 1445 1443 1442 1440 1439 1437 1435 1433 1431 1429 1427 1425 1423
1482 1482 1483 1483 1483 1484 1484 1484 1484 1484 1484 1484 1484 1483 1483 1483 1483 1482 1482 1482 1481 1480 1480 1479 1479 1478 1477 1477 1476 1475 1474 1473 1472 1471 1470 1469 1468 1467 1466 1465 1464 1463 1462 1460 1459 1458 1456 1455 1454 1453 1452 1451 1449 1448 1447 1445 1443 1441 1440 1438 1436 1435 1433 1432 1429 1427 1425 1423 1422
1480 1480 1480 1481 1481 1482 1482 1482 1482 1482 1482 1482 1482 1481 1481 1481 1481 1480 1480 1480 1479 1479 1478 1478 1477 1476 1476 1475 1474 1474 1473 1472 1471 1470 1469 1468 1467 1466 1464 1464 1462 1461 1460 1459 1458 1456 1455 1454 1453 1452 1450 1449 1448 1446 1445 1443 1441 1439 1438 1436 1434 1433 1432 1430 1428 1425 1424 1422 1420
1477 1478 1478 1479 1479 1480 1480 1480 1480 1480 1480 1480 1480 1479 1479 1479 1479 1479 1479 1478 1478 1477 1476 1476 1475 1475 1474 1474 1473 1472 1471 1470 1469 1468 1467 1466 1465 1464 1463 1462 1461 1459 1459 1457 1456 1455 1454 1452 1451 1450 1449 1448 1446 1444 1443 1441 1439 1437 1435 1434 1433 1432 1430 1428 1426 1424 1422 1421 1419
1475 1476 1476 1477 1477 1478 1478 1478 1478 1478 1478 1478 1478 1478 1478 1477 1477 1477 1477 1476 1476 1475 1475 1474 1474 1473 1473 1472 1471 1471 1470 1469 1468 1467 1466 1465 1464 1463 1462 1461 1459 1458 1457 1456 1454 1453 1452 1451 1450 1449 1447 1446 1444 1442 1440 1438 1436 1434 1434 1434 1432 1431 1429 1427 1425 1423 1421 1419 1418
1473 1474 1474 1475 1475 1476 1476 1476 1476 1476 1476 1476 1476 1476 1476 1475 1475 1475 1475 1474 1474 1474 1473 1473 1472 1472 1471 1470 1470 1469 1468 1467 1466 1465 1464 1463 1462 1461 1460 1459 1458 1457 1455 1454 1453 1452 1450 1449 1448 1447 1445 1444 1442 1440 1438 1436 1435 1434 1434 1433 1431 1430 1428 1426 1424 1422 1420 1418 1417
1471 1472 1472 1473 1473 1474 1474 1474 1474 1474 1474 1474 1474 1474 1474 1474 1474 1474 1473 1473 1472 1472 1472 1471 1471 1470 1469 1469 1468 1467 1467 1466 1465 1464 1463 1462 1461 1460 1459 1458 1457 1455 1454 1453 1451 1450 1449 1448 1446 1445 1444 1442 1441 1439 1438 1437 1437 1437 1435 1433 1431 1429 1427 1425 1424 1421 1419 1417 1416
1469 1469 1470 1470 1471 1471 1471 1472 1472 1472 1472 1472 1472 1472 1472 1472 1472 1472 1471 1471 1471 1470 1470 1469 1469 1469 1468 1467 1467 1466 1465 1464 1463 1462 1461 1460 1460 1459 1458 1456 1455 1454 1453 1451 1450 1449 1448 1447 1446 1444 1443 1442 1440 1439 1438 1438 1437 1436 1434 1432 1430 1428 1426 1424 1422 1420 1418 1416 1414
1466 1467 1467 1468 1468 1469 1469 1469 1470 1470 1470 1470 1470 1470 1470 1470 1470 1470 1469 1469 1469 1469 1468 1468 1468 1467 1467 1466 1465 1464 1464 1463 1462 1461 1460 1459 1458 1457 1456 1455 1454 1453 1451 1450 1449 1448 1447 1446 1445 1444 1443 1442 1440 1439 1438 1438 1436 1434 1432 1430 1429 1427 1425 1423 1420 1419 1417 1415 1413
1464 1464 1465 1465 1466 1466 1467 1467 1468 1468 1468 1469 1469 1468 1468 1468 1468 1468 1468 1468 1467 1467 1467 1466 1466 1465 1465 1464 1464 1463 1462 1461 1460 1459 1458 1457 1456 1455 1454 1454 1453 1451 1450 1449 1448 1447 1446 1445 1444 1444 1443 1441 1440 1439 1438 1436 1434 1433 1431 1429 1428 1426 1424 1422 1419 1418 1416 1414 1412
1461 1462 1463 1463 1464 1464 1464 1465 1465 1466 1466 1466 1467 1467 1466 1466 1466 1466 1466 1466 1466 1465 1465 1465 1464 1464 1464 1463 1462 1461 1461 1460 1459 1458 1457 1456 1455 1454 1453 1452 1451 1450 1449 1448 1447 1446 1445 1444 1443 1442 1442 1441 1439 1439 1437 1434 1433 1431 1430 1428 1426 1424 1423 1421 1419 1417 1415 1413 1412
1459 1459 1460 1461 1461 1462 1462 1463 1463 1464 1464 1464 1465 1465 1464 1464 1464 1464 1464 1464 1464 1464 1463 1463 1463 1462 1462 1461 1461 1460 1459 1459 1458 1457 1455 1454 1454 1453 1452 1451 1450 1449 1448 1447 1446 1444 1444 1443 1442 1441 1440 1440 1439 1438 1435 1433 1432 1430 1429 1427 1425 1424 1422 1420 1418 1416 1414 1412 1411
1457 1457 1458 1458 1459 1460 1460 1461 1462 1462 1463 1463 1463 1463 1463 1463 1462 1463 1463 1462 1462 1462 1462 1461 1461 1461 1460 1460 1459 1459 1458 1457 1456 1455 1454 1453 1452 1451 1450 1449 1449 1448 1447 1446 1444 1444 1443 1442 1441 1440 1439 1439 1438 1436 1434 1432 1430 1429 1427 1426 1424 1423 1421 1419 1417 1415 1413 1411 1410
1454 1455 1455 1456 1457 1458 1459 1459 1460 1460 1461 1461 1461 1461 1461 1461 1461 1461 1461 1461 1461 1460 1460 1460 1459 1459 1459 1458 1458 1457 1456 1456 1455 1454 1453 1451 1450 1449 1449 1448 1447 1446 1445 1444 1443 1442 1441 1440 1440 1439 1438 1438 1437 1435 1432 1431 1429 1428 1426 1425 1423 1422 1420 1419 1417 1415 1413 1411 1409
1452 1452 1453 1454 1455 1456 1457 1458 1458 1459 1459 1459 1459 1459 1459 1459 1459 1459 1459 1459 1459 1459 1459 1458 1458 1457 1457 1457 1456 1455 1455 1454 1453 1452 1451 1450 1449 1448 1447 1446 1446 1445 1444 1443 1442 1441 1440 1439 1439 1438 1437 1437 1436 1434 1431 1430 1428 1427 1425 1424 1423 1421 1420 1418 1416 1414 1412 1410 1409
1449 1450 1451 1452 1453 1454 1455 1456 1456 1457 1457 1457 1457 1458 1458 1458 1458 1458 1458 1458 1457 1457 1457 1456 1456 1456 1455 1455 1455 1454 1454 1453 1452 1451 1450 1449 1448 1446 1446 1445 1444 1444 1443 1442 1441 1440 1439 1438 1437 1436 1436 1436 1434 1432 1430 1429 1427 1426 1424 1423 1422 1420 1419 1417 1415 1414 1412 1410 1408
1447 1448 1449 1449 1451 1452 1453 1454 1454 1454 1455 1455 1456 1456 1456 1456 1456 1456 1456 1456 1456 1455 1455 1455 1454 1454 1454 1454 1453 1453 1452 1451 1450 1449 1449 1447 1446 1445 1444 1444 1443 1442 1441 1440 1440 1439 1438 1437 1436 1435 1435 1434 1433 1431 1429 1427 1426 1424 1423 1422 1421 1420 1418 1417 1415 1413 1411 1409 1408
1444 1445 1446 1447 1449 1449 1450 1451 1452 1453 1453 1454 1454 1454 1455 1454 1454 1454 1454 1454 1454 1454 1453 1453 1453 1453 1452 1452 1452 1451 1450 1450 1449 1448 1447 1446 1445 1444 1443 1442 1441 1441 1440 1439 1438 1438 1437 1436 1435 1434 1434 1433 1432 1429 1428 1426 1424 1423 1422 1421 1420 1419 1417 1416 1414 1412 1410 1409 1407
1442 1443 1444 1445 1446 1447 1448 1449 1450 1451 1451 1452 1452 1453 1453 1453 1453 1453 1453 1453 1452 1452 1452 1451 1451 1451 1451 1450 1450 1449 1449 1448 1447 1447 1445 1444 1443 1442 1441 1440 1440 1439 1439 1438 1437 1436 1436 1435 1434 1433 1433 1432 1431 1429 1426 1424 1423 1422 1421 1420 1419 1418 1416 1415 1413 1411 1409 1408 1406
1439 1440 1442 1443 1444 1445 1446 1447 1448 1449 1449 1450 1451 1451 1452 1452 1452 1452 1452 1451 1451 1450 1450 1450 1449 1449 1449 1449 1448 1448 1447 1447 1446 1445 1444 1443 1442 1441 1440 1439 1439 1438 1437 1437 1436 1435 1434 1434 1433 1432 1432 1431 1430 1428 1425 1424 1422 1421 1420 1419 1418 1417 1415 1414 1412 1411 1409 1407 1406
1437 1439 1440 1441 1442 1443 1444 1445 1446 1446 1447 1448 1449 1450 1450 1450 1450 1450 1450 1449 1449 1449 1449 1448 1448 1448 1447 1447 1447 1446 1446 1445 1444 1443 1442 1441 1440 1439 1438 1437 1437 1436 1436 1435 1434 1434 1433 1432 1432 1431 1431 1430 1429 1427 1424 1423 1421 1420 1419 1418 1417 1416 1414 1413 1412 1410 1409 1407 1405
1435 1436 1438 1439 1440 1441 1442 1443 1444 1444 1446 1447 1448 1448 1448 1448 1448 1448 1448 1448 1448 1447 1447 1447 1446 1446 1446 1445 1445 1444 1444 1444 1443 1442 1441 1440 1439 1438 1437 1436 1435 1435 1434 1434 1433 1432 1432 1431 1430 1430 1430 1429 1429 1426 1424 1422 1421 1419 1419 1417 1416 1415 1414 1412 1411 1409 1408 1407 1405
1433 1434 1436 1437 1438 1439 1440 1441 1442 1443 1444 1445 1446 1446 1446 1447 1447 1447 1447 1446 1446 1446 1445 1445 1445 1445 1444 1444 1443 1443 1443 1442 1441 1440 1439 1439 1438 1437 1436 1434 1434 1433 1433 1432 1431 1431 1430 1430 1429 1429 1429 1428 1428 1426 1424 1421 1420 1419 1417 1416 1415 1414 1413 1411 1410 1409 1408 1406 1405
1431 1432 1433 1434 1436 1437 1438 1439 1440 1441 1443 1443 1444 1444 1445 1445 1445 1445 1444 1444 1444 1444 1444 1444 1444 1443 1443 1442 1442 1441 1441 1440 1440 1439 1438 1437 1436 1435 1434 1433 1432 1432 1431 1430 1430 1429 1429 1428 1428 1427 1427 1427 1426 1425 1423 1421 1419 1418 1416 1415 1414 1413 1412 1410 1409 1408 1407 1405 1404